15min,AgWx,beryljct,423,28FEB2021:00:00:00,19.9,12.73,18.5,18.0,18.4,19.3,17.3,69,71,68,0.239,10.1,10.9,8.8,3.288,2.7,332,9.6,3.5,0.00003,0.00005,33.9,36.1,12,0,0,.,7.14,0.00,0.00
15min,AgWx,beryljct,423,28FEB2021:00:15:00,19.3,12.71,15.4,15.3,17.1,18.5,15.3,70,72,69,0.219,9.1,10.5,7.6,4.538,3.6,341,18,4.7,0.00004,0.00006,33.8,36.1,12,0,0,.,7.14,0.00,0.00
15min,AgWx,beryljct,423,28FEB2021:00:30:00,18.3,12.71,14.7,13.8,14.4,15.3,13.7,74,76,72,0.214,7.7,8.1,7.3,5.064,4.8,322,8.2,5.7,0.00004,0.00006,33.8,36.0,12,0,0,.,7.14,0.00,0.00
15min,AgWx,beryljct,423,28FEB2021:00:45:00,17.5,12.71,16.6,15.9,14.6,15.9,13.7,76,77,74,0.232,8.3,9.3,7.5,1.71,3.7,329,16,5.3,0.00003,0.00004,33.7,36.0,12,0,0,.,7.15,0.00,0.00
15min,AgWx,beryljct,423,28FEB2021:01:00:00,17.0,12.71,18.1,17.4,17.0,17.6,16.0,73,74,72,0.240,9.8,10.3,9.1,2.17,2.7,315,20,3.4,0.00002,0.00004,33.7,36.0,12,0,0,.,7.14,0.00,0.00
15min,AgWx,beryljct,423,28FEB2021:01:15:00,16.8,12.7,16.4,14.9,16.9,17.8,14.6,72,76,71,0.226,9.5,10.5,7.3,3.047,2.1,317,56,5.2,0.00002,0.00003,33.6,36.0,12,0,0,.,7.14,0.00,0.00
15min,AgWx,beryljct,423,28FEB2021:01:30:00,16.2,12.68,15.5,14.6,14.6,16.2,13.3,77,81,74,0.236,8.7,10.1,7.2,0.526,1.3,101,42,3.0,-0.00001,-0.00001,33.6,35.9,12,0,0,.,7.14,0.00,0.00
15min,AgWx,beryljct,423,28FEB2021:01:45:00,15.9,12.67,15.1,16.2,16.0,17.4,14.6,77,80,74,0.236,10.2,11.4,8.4,0,2.1,224,15,3.6,0.00001,0.00001,33.5,35.9,12,0,0,.,7.14,0.00,0.00
15min,AgWx,beryljct,423,28FEB2021:02:00:00,15.6,12.66,19.5,18.6,16.4,18.6,14.9,76,78,74,0.259,10.2,11.8,8.5,2.762,1.2,304,47,4.3,-0.00001,-0.00001,33.5,35.9,12,0,0,.,7.14,0.00,0.00
15min,AgWx,beryljct,423,28FEB2021:02:15:00,15.9,12.65,15.3,15.9,18.2,19.0,15.9,72,74,71,0.219,10.8,11.8,8.0,0.373,2.4,318,45,4.2,0.00002,0.00003,33.4,35.8,12,0,0,.,7.15,0.00,0.00
15min,AgWx,beryljct,423,28FEB2021:02:30:00,15.8,12.65,16.1,15.5,15.7,16.6,14.7,75,77,71,0.235,9.2,10.2,7.8,1.491,0.1,8.1,9.9,1.5,-0.00004,-0.00007,33.4,35.8,12,0,0,.,7.15,0.00,0.00
15min,AgWx,beryljct,423,28FEB2021:02:45:00,15.3,12.62,14.0,13.6,13.9,15.6,12.4,77,81,75,0.225,8.1,9.6,6.9,4.713,2.5,231,81,5.3,0.00001,0.00002,33.3,35.8,12,0,0,.,7.15,0.00,0.00
15min,AgWx,beryljct,423,28FEB2021:03:00:00,15.1,12.62,16.5,15.6,15.0,16.4,13.6,79,81,76,0.234,9.6,11.0,8.0,1.469,2.4,183,30,6.0,0.00001,0.00002,33.3,35.8,12,0,0,.,7.15,0.00,0.00
15min,AgWx,beryljct,423,28FEB2021:03:15:00,15.4,12.6,17.4,17.1,16.1,17.1,15.4,77,78,76,0.254,10.3,11.3,9.2,0.351,1.7,205,21,2.9,0.00000,0.00001,33.2,35.7,12,0,0,.,7.15,0.00,0.00
15min,AgWx,beryljct,423,28FEB2021:03:30:00,15.8,12.6,18.6,17.5,17.3,17.6,17.0,76,77,75,0.256,11.1,11.6,10.6,2.083,0.6,211,7.6,2.2,-0.00003,-0.00003,33.1,35.7,12,0,0,.,7.15,0.00,0.00
15min,AgWx,beryljct,423,28FEB2021:03:45:00,16.2,12.57,20.2,18.6,18.3,19.0,17.6,74,77,72,0.251,11.3,11.9,10.7,3.091,2.5,276,32,4.5,0.00002,0.00003,33.1,35.6,12,0,0,.,7.15,0.00,0.00
15min,AgWx,beryljct,423,28FEB2021:04:00:00,16.8,12.57,17.4,17.3,18.4,19.3,17.2,74,76,72,0.249,11.4,12.0,10.8,2.346,2.9,44,19,5.5,0.00003,0.00004,33.1,35.6,12,0,0,.,7.15,0.00,0.00
15min,AgWx,beryljct,423,28FEB2021:04:15:00,17.0,12.57,17.4,17.1,16.7,17.2,16.4,77,79,75,0.258,10.8,11.6,10.4,3.793,2.2,58,17,5.0,0.00001,0.00002,33.0,35.6,12,0,0,.,7.15,0.00,0.00
15min,AgWx,beryljct,423,28FEB2021:04:30:00,17.1,12.55,16.9,16.9,17.3,17.9,16.8,77,79,75,0.247,11.4,11.8,10.4,5.305,4.5,19,12,6.1,0.00004,0.00005,32.9,35.6,12,0,0,.,7.15,0.00,0.00
15min,AgWx,beryljct,423,28FEB2021:04:45:00,17.2,12.54,18.3,17.7,16.9,17.7,16.3,78,79,76,0.265,11.4,12.3,10.5,5.568,6.1,36,4.4,7.4,0.00004,0.00006,32.9,35.6,12,0,0,.,7.15,0.00,0.00
15min,AgWx,beryljct,423,28FEB2021:05:00:00,17.4,12.54,17.4,17.3,17.7,17.9,17.3,78,79,77,0.254,11.9,12.3,11.2,4.691,5.6,25,7.1,6.8,0.00004,0.00006,32.9,35.5,13,0,0,.,7.15,0.00,0.00
15min,AgWx,beryljct,423,28FEB2021:05:15:00,17.2,12.54,19.5,18.9,17.2,18.9,16.0,77,79,75,0.267,11.3,12.5,10.4,5.612,4.8,17,9.2,6.7,0.00004,0.00005,32.8,35.5,12,0,0,.,7.15,0.00,0.00
15min,AgWx,beryljct,423,28FEB2021:05:30:00,16.8,12.52,14.0,12.9,14.8,19.0,12.7,77,80,72,0.219,8.8,12.4,6.8,3.814,3.5,339,13,6.0,0.00003,0.00004,32.8,35.5,12,0,0,.,7.16,0.00,0.00
15min,AgWx,beryljct,423,28FEB2021:05:45:00,15.7,12.51,13.2,12.1,12.1,13.6,11.1,81,83,80,0.219,7.5,9.0,6.3,3.705,4.0,335,8.1,4.8,0.00002,0.00003,32.7,35.4,12,0,0,.,7.15,0.00,0.00
15min,AgWx,beryljct,423,28FEB2021:06:00:00,15.2,12.52,17.7,17.3,15.6,17.4,12.2,80,84,76,0.255,10.6,11.8,8.1,6.423,6.2,355,14,8.3,0.00004,0.00005,32.7,35.4,12,0,0,.,7.15,0.00,0.00
15min,AgWx,beryljct,423,28FEB2021:06:15:00,15.3,12.51,12.2,11.8,14.9,17.3,11.7,78,80,76,0.206,9.3,11.4,6.4,3.223,4.4,343,14,6.7,0.00003,0.00004,32.6,35.4,12,0,0,.,7.15,0.00,0.00
15min,AgWx,beryljct,423,28FEB2021:06:30:00,14.6,12.5,13.2,12.5,12.4,12.9,11.3,82,83,80,0.221,8.0,8.7,6.4,2.806,3.0,326,8.9,3.5,0.00005,0.00009,32.6,35.4,12,0,0,.,7.16,0.00,0.00
15min,AgWx,beryljct,423,28FEB2021:06:45:00,13.8,12.49,10.5,10.5,12.0,12.7,10.5,83,84,82,0.201,7.9,8.9,6.1,4.012,3.5,329,6.8,4.3,0.00005,0.00009,32.6,35.3,12,0,0,.,7.16,0.00,0.00
15min,AgWx,beryljct,423,28FEB2021:07:00:00,13.0,12.5,11.9,10.8,10.3,10.8,9.7,84,85,82,0.211,6.4,7.2,5.5,2.477,2.8,324,4.9,4.3,0.00004,0.00007,32.5,35.3,12,1,0,.,7.16,0.00,0.00
15min,AgWx,beryljct,423,28FEB2021:07:15:00,12.4,12.5,13.5,12.9,11.6,12.9,10.9,84,85,83,0.230,7.7,9.1,7.0,3.683,3.0,345,14,3.9,0.00006,0.00009,32.5,35.3,12,5,0,.,7.16,0.00,0.00
15min,AgWx,beryljct,423,28FEB2021:07:30:00,12.3,12.51,13.2,12.8,12.2,13.7,10.9,83,86,80,0.231,8.1,9.9,5.8,2.85,2.9,1.2,15,4.1,0.00007,0.00011,32.4,35.2,12,12,0,.,7.15,0.00,0.00
15min,AgWx,beryljct,423,28FEB2021:07:45:00,12.5,12.54,15.3,14.6,13.6,14.6,12.7,85,86,85,0.252,10.0,11.1,9.0,5.13,4.1,23,6.0,5.4,0.00010,0.00014,32.4,35.2,12,19,0,.,7.16,0.00,0.00
15min,AgWx,beryljct,423,28FEB2021:08:00:00,13.1,12.58,14.2,13.9,14.0,14.7,13.7,85,86,85,0.243,10.4,11.2,10.1,4.077,5.2,33,4.1,6.1,0.00013,0.00019,32.3,35.2,12,31,0,.,7.15,0.00,0.00
15min,AgWx,beryljct,423,28FEB2021:08:15:00,14.1,13.55,18.7,17.9,15.3,17.9,13.9,86,86,84,0.285,11.8,13.9,10.3,5.678,5.1,34,6.0,6.9,0.00034,0.00041,32.3,35.1,12,148,0,.,7.15,0.00,0.00
15min,AgWx,beryljct,423,28FEB2021:08:30:00,16.9,14.9,21.5,20.4,19.3,20.6,18.0,82,84,80,0.300,14.6,15.6,14.0,4.757,6.4,34,8.3,8.4,0.00054,0.00065,32.3,35.1,12,223,0,.,7.15,0.00,0.00
15min,AgWx,beryljct,423,28FEB2021:08:45:00,19.8,14.9,21.7,21.5,20.9,21.5,20.3,78,80,75,0.299,15.0,15.6,14.5,7.475,7.1,39,9.3,10.4,0.00069,0.00083,32.2,35.1,12,271,0,.,7.15,0.00,0.00
15min,AgWx,beryljct,423,28FEB2021:09:00:00,22.3,14.86,22.6,23.0,22.2,23.1,21.4,74,75,71,0.302,15.1,15.9,14.1,9.4,7.5,40,14,10.5,0.00085,0.00103,32.2,35.1,12,326,0,.,7.15,0.00,0.00
15min,AgWx,beryljct,423,28FEB2021:09:15:00,23.9,14.89,22.5,22.0,22.3,23.0,21.7,71,71,70,0.282,14.2,15.1,13.5,5.371,7.8,27,15,11.1,0.00070,0.00089,32.1,35.0,12,214,0,.,7.15,0.00,0.00
15min,AgWx,beryljct,423,28FEB2021:09:30:00,24.6,14.88,24.0,23.8,22.8,24.5,21.8,69,70,66,0.285,14.1,15.5,13.3,11.27,7.8,16,19,12.3,0.00079,0.00100,32.1,35.0,12,246,0,.,7.15,0.00,0.00
15min,AgWx,beryljct,423,28FEB2021:09:45:00,25.9,14.87,29.2,27.4,25.0,27.4,23.4,65,67,61,0.315,14.8,16.5,13.4,10.17,9.8,53,13,14.7,0.00127,0.00157,32.0,35.0,12,460,0,.,7.15,0.00,0.00
15min,AgWx,beryljct,423,28FEB2021:10:00:00,28.5,14.82,26.8,27.7,27.1,28.2,26.0,57,62,54,0.285,14.0,16.5,12.2,13.04,12.4,44,12,19.8,0.00164,0.00207,32.0,35.0,12,582,0,.,7.15,0.00,0.00
15min,AgWx,beryljct,423,28FEB2021:10:15:00,30.5,14.71,26.0,27.0,26.9,27.7,26.1,55,57,52,0.266,12.7,14.5,11.4,9.91,12.1,40,19,17.3,0.00180,0.00226,32.0,34.9,12,647,0,.,7.15,0.00,0.00
15min,AgWx,beryljct,423,28FEB2021:10:30:00,31.8,14.81,26.9,26.9,27.4,28.4,26.6,51,54,50,0.252,11.8,13.2,10.7,9.84,12.8,53,14,18.5,0.00173,0.00223,32.0,34.9,12,575,0,.,7.15,0.00,0.00
15min,AgWx,beryljct,423,28FEB2021:10:45:00,32.1,14.8,27.8,27.8,27.6,28.8,26.5,50,51,48,0.252,11.4,12.5,10.7,11.99,12.7,55,16,17.7,0.00164,0.00215,32.0,34.9,12,508,0,.,7.15,0.00,0.00
15min,AgWx,beryljct,423,28FEB2021:11:00:00,32.7,14.74,30.2,29.5,28.4,29.5,27.2,48,50,47,0.267,11.4,13.1,10.3,9.71,11.7,55,16,16.2,0.00192,0.00245,32.0,34.9,12,619,0,.,7.15,0.00,0.00
15min,AgWx,beryljct,423,28FEB2021:11:15:00,33.6,14.28,30.1,29.3,29.6,30.9,28.2,47,49,45,0.260,11.6,13.5,10.4,12.3,10.8,50,18,15.0,0.00210,0.00264,32.0,34.8,12,647,0,.,7.15,0.00,0.00
15min,AgWx,beryljct,423,28FEB2021:11:30:00,34.2,14.34,30.8,30.5,29.4,30.8,28.2,46,48,44,0.252,11.3,12.8,10.1,8.35,9.9,52,20,18.0,0.00211,0.00264,32.0,34.8,12,658,0,.,7.14,0.00,0.00
15min,AgWx,beryljct,423,28FEB2021:11:45:00,34.9,14.3,31.4,31.2,30.5,31.5,28.9,43,45,41,0.251,10.5,12.0,9.4,14.69,12.6,57,22,19.0,0.00234,0.00299,32.0,34.8,12,732,0,.,7.14,0.00,0.00
15min,AgWx,beryljct,423,28FEB2021:12:00:00,35.6,14.25,30.3,30.5,31.0,32.7,30.1,40,42,37,0.218,9.6,10.9,7.6,10.13,12.1,59,14,18.7,0.00244,0.00311,32.0,34.8,12,741,0,.,7.14,0.00,0.00
15min,AgWx,beryljct,423,28FEB2021:12:15:00,36.4,14.25,31.7,32.4,32.2,34.7,30.4,34,39,32,0.203,6.9,9.4,4.4,11,11.5,39,20,18.3,0.00262,0.00337,32.0,34.7,12,753,0,.,7.14,0.00,0.00
15min,AgWx,beryljct,423,28FEB2021:12:30:00,37.2,14.24,31.4,32.4,32.8,34.2,31.7,33,35,31,0.198,7.1,8.9,5.5,7.585,10.9,51,12,17.5,0.00270,0.00345,32.0,34.7,12,762,0,.,7.14,0.00,0.00
15min,AgWx,beryljct,423,28FEB2021:12:45:00,37.9,14.3,35.7,34.1,33.2,34.5,32.2,32,34,30,0.209,6.6,8.5,4.8,7.519,10.1,41,19,14.2,0.00276,0.00350,32.1,34.7,12,766,0,.,7.13,0.00,0.00
15min,AgWx,beryljct,423,28FEB2021:13:00:00,38.5,14.2,32.2,32.8,33.4,34.2,32.6,31,31,30,0.197,5.7,7.0,4.9,7.015,11.0,18,18,15.8,0.00279,0.00358,32.1,34.7,12,767,0,.,7.13,0.00,0.00
15min,AgWx,beryljct,423,28FEB2021:13:15:00,39.0,14.2,33.6,34.2,33.6,35.0,32.6,31,32,30,0.206,6.2,7.9,5.0,11,9.8,23,18,14.8,0.00281,0.00355,32.1,34.6,12,763,0,.,7.13,0.00,0.00
15min,AgWx,beryljct,423,28FEB2021:13:30:00,39.7,14.19,37.2,35.3,34.0,35.3,32.9,30,31,30,0.209,6.1,7.4,4.8,12.25,7.5,24,14,14.4,0.00285,0.00351,32.1,34.6,12,756,0,.,7.13,0.00,0.00
15min,AgWx,beryljct,423,28FEB2021:13:45:00,40.4,14.14,34.0,35.0,34.5,35.5,33.3,30,30,29,0.208,5.9,7.0,4.8,9.38,9.8,36,16,17.5,0.00283,0.00361,32.1,34.6,12,745,0,.,7.12,0.00,0.00
15min,AgWx,beryljct,423,28FEB2021:14:00:00,41.1,14.15,33.7,34.0,34.4,35.2,33.7,30,31,28,0.190,5.9,7.1,4.7,2.631,5.9,32,23,10.9,0.00280,0.00340,32.1,34.6,12,729,0,.,7.12,0.00,0.00
15min,AgWx,beryljct,423,28FEB2021:14:15:00,42.1,14.2,35.7,37.0,35.8,37.7,34.0,28,29,26,0.197,5.9,7.2,4.3,11.11,8.4,49,19,13.4,0.00282,0.00357,32.1,34.6,12,709,0,.,7.12,0.00,0.00
15min,AgWx,beryljct,423,28FEB2021:14:30:00,42.6,14.1,37.2,37.5,36.3,37.9,35.1,26,27,25,0.187,4.5,6.0,3.6,8.09,9.7,59,17,15.5,0.00281,0.00365,32.1,34.6,12,686,0,.,7.12,0.00,0.00
15min,AgWx,beryljct,423,28FEB2021:14:45:00,43.0,14.08,35.7,36.8,36.9,38.0,36.0,25,25,24,0.179,4.0,5.3,2.8,7.497,9.8,40,13,16.3,0.00270,0.00356,32.2,34.6,12,635,0,.,7.12,0.00,0.00
15min,AgWx,beryljct,423,28FEB2021:15:00:00,43.4,14.08,36.1,36.8,37.0,38.4,36.1,24,25,24,0.184,4.0,5.3,3.0,5.765,9.6,46,25,16.4,0.00269,0.00354,32.3,34.5,12,628,0,.,7.11,0.00,0.00
15min,AgWx,beryljct,423,28FEB2021:15:15:00,43.7,14.05,38.6,37.7,37.5,39.0,36.6,24,25,23,0.178,3.6,5.7,2.5,8.79,9.1,54,18,15.8,0.00261,0.00344,32.6,34.5,12,595,0,.,7.12,0.00,0.00
15min,AgWx,beryljct,423,28FEB2021:15:30:00,44.0,14.03,39.2,38.4,37.6,39.0,36.6,23,24,22,0.184,3.1,4.4,1.8,10.92,9.7,52,15,17.6,0.00248,0.00336,33.1,34.5,12,550,0,.,7.11,0.00,0.00
15min,AgWx,beryljct,423,28FEB2021:15:45:00,44.2,14.05,37.2,37.7,38.3,39.7,37.5,22,23,21,0.168,2.9,4.2,1.7,9.58,10.6,47,14,16.7,0.00246,0.00340,33.6,34.5,12,519,0,.,7.12,0.00,0.00
15min,AgWx,beryljct,423,28FEB2021:16:00:00,44.3,14.05,38.2,38.0,38.0,38.7,37.0,22,22,21,0.167,2.2,3.3,1.1,10.57,10.4,43,14,16.5,0.00229,0.00321,34.0,34.5,12,475,0,.,7.11,0.00,0.00
15min,AgWx,beryljct,423,28FEB2021:16:15:00,44.2,14.08,38.1,37.7,38.0,38.9,37.5,21,22,21,0.164,1.8,2.7,1.2,10.92,11.8,43,12,17.0,0.00221,0.00319,34.5,34.5,12,432,0,.,7.11,0.00,0.00
15min,AgWx,beryljct,423,28FEB2021:16:30:00,43.9,14.05,38.3,37.6,38.1,38.9,37.5,22,22,21,0.162,2.1,3.1,1.2,9.69,11.6,43,17,16.5,0.00206,0.00302,34.9,34.5,12,386,0,.,7.11,0.00,0.00
15min,AgWx,beryljct,423,28FEB2021:16:45:00,43.6,14.09,37.6,37.5,37.9,38.4,37.2,21,21,21,0.160,1.4,2.2,0.4,14.58,12.4,56,10,17.0,0.00193,0.00291,35.2,34.5,12,333,0,.,7.11,0.00,0.00
15min,AgWx,beryljct,423,28FEB2021:17:00:00,43.0,14.09,37.4,37.3,37.6,38.1,37.2,21,21,20,0.152,0.7,1.5,-0.1,13.92,12.5,52,10,18.0,0.00175,0.00274,35.5,34.6,12,275,0,.,7.11,0.00,0.00
15min,AgWx,beryljct,423,28FEB2021:17:15:00,42.4,14.14,36.9,37.0,37.4,37.8,37.0,20,20,20,0.148,0.0,0.7,-0.7,10.74,11.5,50,10,16.6,0.00158,0.00252,35.8,34.6,12,235,0,.,7.11,0.00,0.00
15min,AgWx,beryljct,423,28FEB2021:17:30:00,41.7,14.15,36.9,36.7,37.0,37.2,36.7,21,21,20,0.154,0.4,1.2,-0.7,9.97,10.8,54,8.3,14.9,0.00061,0.00070,36.0,34.7,12,181,0,.,7.11,0.00,0.00
15min,AgWx,beryljct,423,28FEB2021:17:45:00,40.8,14.17,36.3,36.0,36.2,36.7,35.9,21,22,21,0.153,0.2,0.6,-0.2,8.4,10.3,57,9.3,14.4,0.00055,0.00064,36.1,34.7,12,136,0,.,7.11,0.00,0.00
15min,AgWx,beryljct,423,28FEB2021:18:00:00,39.7,14.15,35.5,35.0,35.5,36.0,35.0,22,23,21,0.156,0.2,0.6,-0.2,10.72,9.1,55,11,12.0,0.00048,0.00057,36.2,34.7,12,98,0,.,7.11,0.00,0.00
15min,AgWx,beryljct,423,28FEB2021:18:15:00,38.4,13.12,33.1,33.3,34.3,35.0,33.3,22,23,22,0.149,-0.2,0.5,-0.6,8.33,9.9,54,7.3,12.6,0.00042,0.00050,36.2,34.8,12,41,0,.,7.12,0.00,0.00
15min,AgWx,beryljct,423,28FEB2021:18:30:00,36.4,13.04,32.3,31.9,32.6,33.3,31.7,24,25,23,0.152,-0.1,0.1,-0.3,9.82,9.4,59,7.4,12.0,0.00035,0.00042,36.2,34.9,13,8,0,.,7.11,0.00,0.00
15min,AgWx,beryljct,423,28FEB2021:18:45:00,34.4,12.99,30.7,30.4,30.9,31.9,30.4,26,27,25,0.153,0.1,0.3,-0.1,6.73,6.8,62,9.0,9.3,0.00026,0.00032,36.2,35.0,13,2,0,.,7.12,0.00,0.00
15min,AgWx,beryljct,423,28FEB2021:19:00:00,32.7,12.98,29.0,28.6,29.8,30.4,28.6,28,29,27,0.155,0.3,0.5,0.1,7.278,7.5,61,6.8,10.0,0.00026,0.00032,36.1,35.0,12,0,0,.,7.12,0.00,0.00
15min,AgWx,beryljct,423,28FEB2021:19:15:00,31.3,12.96,29.0,28.4,28.4,28.8,28.1,29,30,29,0.155,0.5,0.7,0.3,8.92,8.1,55,6.7,12.8,0.00025,0.00031,36.0,35.1,13,0,0,.,7.12,0.00,0.00
15min,AgWx,beryljct,423,28FEB2021:19:30:00,30.3,12.94,28.7,28.5,28.5,28.8,28.1,29,30,29,0.157,0.5,0.8,0.4,7.497,8.5,58,8.0,11.4,0.00026,0.00032,35.8,35.1,12,0,0,.,7.12,0.00,0.00
15min,AgWx,beryljct,423,28FEB2021:19:45:00,29.5,12.93,27.1,27.1,27.7,28.5,27.1,31,32,30,0.157,0.7,0.9,0.4,6.73,6.5,57,9.0,8.2,0.00020,0.00026,35.7,35.2,13,0,0,.,7.12,0.00,0.00
15min,AgWx,beryljct,423,28FEB2021:20:00:00,28.6,12.92,26.6,25.8,26.5,27.1,25.8,33,34,32,0.161,1.1,1.5,0.8,6.445,6.1,46,6.3,7.8,0.00017,0.00022,35.5,35.2,12,0,0,.,7.12,0.00,0.00
15min,AgWx,beryljct,423,28FEB2021:20:15:00,27.8,12.9,25.0,25.3,25.8,26.2,25.2,35,36,34,0.168,1.9,2.4,1.4,4.406,5.0,50,7.5,7.6,0.00013,0.00018,35.3,35.3,12,0,0,.,7.12,0.00,0.00
15min,AgWx,beryljct,423,28FEB2021:20:30:00,27.0,12.9,26.4,25.9,25.4,26.1,24.8,37,38,36,0.177,2.8,3.5,2.1,8.2,6.4,50,7.0,10.5,0.00016,0.00020,35.1,35.4,12,0,0,.,7.12,0.00,0.00
15min,AgWx,beryljct,423,28FEB2021:20:45:00,26.5,12.88,25.7,25.3,25.5,26.0,25.1,38,38,37,0.176,3.3,3.6,3.1,5.853,6.2,45,8.1,8.7,0.00015,0.00020,34.9,35.4,12,0,0,.,7.12,0.00,0.00
15min,AgWx,beryljct,423,28FEB2021:21:00:00,26.1,12.86,24.1,23.8,24.6,25.3,23.7,39,40,38,0.173,3.0,3.3,2.7,4.626,5.1,48,9.2,7.1,0.00012,0.00016,34.7,35.4,12,0,0,.,7.12,0.00,0.00
15min,AgWx,beryljct,423,28FEB2021:21:15:00,25.4,12.85,22.8,22.7,23.4,23.8,22.7,40,41,39,0.164,2.4,2.9,1.6,3.551,4.0,15,17,5.8,0.00007,0.00011,34.5,35.5,12,0,0,.,7.12,0.00,0.00
15min,AgWx,beryljct,423,28FEB2021:21:30:00,24.5,12.85,21.7,21.5,21.6,22.7,21.0,41,42,39,0.163,1.5,1.7,1.2,3.595,2.9,336,12,3.8,0.00002,0.00005,34.4,35.5,12,0,0,.,7.12,0.00,0.00
15min,AgWx,beryljct,423,28FEB2021:21:45:00,23.6,12.85,22.4,21.8,21.8,22.3,21.3,41,41,41,0.165,1.8,2.1,1.4,2.762,3.3,331,8.5,3.8,0.00004,0.00006,34.3,35.5,12,0,0,.,7.12,0.00,0.00
15min,AgWx,beryljct,423,28FEB2021:22:00:00,23.2,12.84,24.1,23.8,23.3,24.3,21.8,40,41,39,0.170,2.4,2.9,1.8,5.59,5.5,360,15,9.1,0.00012,0.00015,34.2,35.5,12,0,0,.,7.12,0.00,0.00
15min,AgWx,beryljct,423,28FEB2021:22:15:00,23.4,12.82,23.1,22.9,23.3,23.8,22.9,40,40,39,0.169,2.4,2.6,2.2,2.74,4.9,360,7.5,7.5,0.00010,0.00014,34.1,35.5,13,0,0,.,7.12,0.00,0.00
15min,AgWx,beryljct,423,28FEB2021:22:30:00,23.0,12.82,22.1,21.4,21.6,22.8,20.8,42,43,40,0.168,2.2,2.5,1.8,4.604,3.5,326,13,4.6,0.00004,0.00007,34.0,35.5,12,0,0,.,7.12,0.00,0.00
15min,AgWx,beryljct,423,28FEB2021:22:45:00,22.3,12.8,18.7,17.9,19.6,21.7,17.9,46,49,43,0.165,2.0,2.6,1.1,4.538,4.4,328,6.8,5.1,0.00006,0.00009,33.9,35.5,12,0,0,.,7.12,0.00,0.00
15min,AgWx,beryljct,423,28FEB2021:23:00:00,21.2,12.8,18.7,18.1,17.6,18.3,16.8,49,50,47,0.163,1.5,2.2,1.0,5.327,4.5,330,8.8,5.6,0.00005,0.00007,33.8,35.5,12,0,0,.,7.13,0.00,0.00
15min,AgWx,beryljct,423,28FEB2021:23:15:00,20.7,12.79,20.1,19.6,19.8,20.8,18.1,45,48,43,0.166,1.9,2.4,0.9,3.42,4.6,1.7,10,5.9,0.00007,0.00010,33.8,35.5,12,0,0,.,7.12,0.00,0.00
15min,AgWx,beryljct,423,28FEB2021:23:30:00,20.3,12.79,18.7,17.9,17.8,20.0,16.8,48,51,45,0.171,1.6,2.6,0.6,4.231,3.9,322,21,5.0,0.00004,0.00006,33.7,35.5,12,0,0,.,7.13,0.00,0.00
15min,AgWx,beryljct,423,28FEB2021:23:45:00,19.8,12.78,19.1,18.6,18.6,18.9,17.9,48,50,47,0.164,2.0,2.6,1.6,2.653,3.7,340,22,5.6,0.00003,0.00005,33.7,35.5,12,0,0,.,7.13,0.00,0.00
15min,AgWx,bigpiney,439,28FEB2021:00:00:00,5.5,12.61,1.6,0.9,1.6,3.5,0.8,73,75,70,0.118,-5.0,-3.2,-6.4,1.82,2.7,31,57,4.8,-0.00002,-0.00002,25.2,27.9,8,0,0,0.0,0.19,0.00,0.00
15min,AgWx,bigpiney,439,28FEB2021:00:15:00,4.7,12.59,4.1,3.5,3.3,4.7,0.9,73,76,69,0.125,-3.6,-2.8,-5.3,3.157,3.2,270,14,5.5,-0.00001,-0.00001,25.0,27.8,8,0,0,0.0,0.19,0.00,0.00
15min,AgWx,bigpiney,439,28FEB2021:00:30:00,4.1,12.59,3.8,3.6,3.0,3.6,2.0,72,73,70,0.128,-4.1,-3.4,-5.5,2.565,2.9,311,19,4.7,-0.00001,-0.00001,24.9,27.8,8,0,0,0.0,0.19,0.00,0.00
15min,AgWx,bigpiney,439,28FEB2021:00:45:00,3.6,12.59,-1.0,-2.1,-0.3,3.5,-2.2,73,76,69,0.104,-7.0,-3.7,-8.5,4.143,3.3,223,28,5.0,-0.00001,-0.00001,24.8,27.7,8,0,0,0.0,0.19,0.00,0.00
15min,AgWx,bigpiney,439,28FEB2021:01:00:00,3.0,12.57,7.3,6.4,3.3,6.4,-2.0,74,79,69,0.140,-3.1,-1.5,-7.8,6.007,5.2,274,9.0,6.0,0.00001,0.00001,24.6,27.8,8,0,0,0.0,0.19,0.00,0.00
15min,AgWx,bigpiney,439,28FEB2021:01:15:00,3.2,12.56,6.0,5.6,6.3,6.7,5.6,68,69,67,0.133,-2.0,-1.6,-2.8,5.393,5.5,288,5.6,6.9,0.00002,0.00003,24.5,27.6,8,0,0,0.0,0.19,0.00,0.00
15min,AgWx,bigpiney,439,28FEB2021:01:30:00,3.5,12.55,3.2,2.4,4.4,6.2,1.9,68,72,66,0.121,-3.8,-2.1,-6.1,3.179,4.8,275,12,6.4,0.00001,0.00002,24.4,27.6,8,0,0,0.0,0.19,0.00,0.00
15min,AgWx,bigpiney,439,28FEB2021:01:45:00,3.5,12.55,2.0,2.1,2.4,3.2,1.8,71,72,70,0.117,-4.9,-3.7,-5.6,4.582,4.5,270,6.8,5.6,0.00000,0.00001,24.2,27.6,8,0,0,0.0,0.19,0.00,0.00
15min,AgWx,bigpiney,439,28FEB2021:02:00:00,3.3,12.54,-2.8,-1.8,1.8,2.6,-1.8,72,72,68,0.095,-5.2,-4.3,-9.7,4.077,4.1,265,22,5.7,0.00000,0.00001,24.1,27.6,8,0,0,0.0,0.19,0.00,0.00
15min,AgWx,bigpiney,439,28FEB2021:02:15:00,2.7,12.52,-3.8,-3.2,-2.6,-1.8,-3.6,74,76,69,0.099,-8.9,-7.8,-10.4,3.793,3.8,200,8.9,4.6,-0.00000,-0.00000,24.0,27.5,8,0,0,0.0,0.19,0.00,0.00
15min,AgWx,bigpiney,439,28FEB2021:02:30:00,1.8,12.51,-4.1,-4.3,-3.5,-2.7,-4.3,76,78,75,0.093,-9.1,-8.1,-10.2,4.121,3.3,229,17,5.2,-0.00001,-0.00001,23.9,27.4,8,0,0,0.0,0.19,0.00,0.00
15min,AgWx,bigpiney,439,28FEB2021:02:45:00,0.8,12.5,-3.4,-4.0,-4.2,-3.6,-4.9,77,78,76,0.097,-9.6,-8.8,-10.3,1.118,3.4,224,12,4.6,-0.00001,-0.00001,23.7,27.5,8,0,0,0.0,0.19,0.00,0.00
15min,AgWx,bigpiney,439,28FEB2021:03:00:00,-0.1,12.49,-2.7,-3.8,-3.6,-3.2,-4.5,77,78,76,0.099,-9.0,-8.5,-10.1,1.425,2.6,250,19,4.3,-0.00002,-0.00002,23.6,27.4,8,0,0,0.0,0.19,0.00,0.00
15min,AgWx,bigpiney,439,28FEB2021:03:15:00,-0.7,12.49,-0.6,-1.9,-2.0,0.8,-3.7,77,80,71,0.099,-7.4,-4.8,-8.9,0,1.8,252,43,4.1,-0.00003,-0.00004,23.5,27.4,8,0,0,0.0,0.19,0.00,0.00
15min,AgWx,bigpiney,439,28FEB2021:03:30:00,-1.2,12.45,-4.4,-5.2,-4.6,-1.7,-5.3,75,78,72,0.091,-10.4,-8.3,-11.1,1.666,1.0,194,14,3.0,-0.00004,-0.00005,23.4,27.3,8,0,0,0.0,0.19,0.00,0.00
15min,AgWx,bigpiney,439,28FEB2021:03:45:00,-1.8,12.47,-2.0,-3.9,-4.8,-3.5,-5.6,79,80,77,0.101,-9.8,-8.1,-11.0,1.973,2.3,256,29,5.7,-0.00002,-0.00002,23.2,27.3,8,0,0,0.0,0.19,0.00,0.00
15min,AgWx,bigpiney,439,28FEB2021:04:00:00,-2.2,12.45,-3.3,-3.3,-2.8,-2.0,-3.7,78,81,77,0.100,-7.8,-6.9,-8.7,2.653,4.0,308,18,6.1,-0.00001,-0.00001,23.1,27.2,8,0,0,0.0,0.19,0.00,0.00
15min,AgWx,bigpiney,439,28FEB2021:04:15:00,-2.4,12.45,-2.9,-3.7,-3.9,-3.4,-4.4,78,80,77,0.100,-9.0,-8.3,-9.6,1.052,1.7,287,22,3.6,-0.00003,-0.00004,23.0,27.2,8,0,0,0.0,0.19,0.00,0.00
15min,AgWx,bigpiney,439,28FEB2021:04:30:00,-2.7,12.42,-4.6,-5.8,-4.3,-3.0,-6.0,78,79,75,0.090,-9.4,-8.0,-11.9,2.17,0.9,169,64,2.5,-0.00004,-0.00006,22.8,27.1,8,0,0,0.0,0.19,0.00,0.00
15min,AgWx,bigpiney,439,28FEB2021:04:45:00,-3.1,12.42,-2.8,-3.9,-5.5,-3.9,-6.5,79,80,77,0.101,-10.5,-8.5,-11.7,0.307,1.0,224,17,3.1,-0.00004,-0.00005,22.7,27.1,8,0,0,0.0,0.19,0.00,0.00
15min,AgWx,bigpiney,439,28FEB2021:05:00:00,-3.6,12.41,-4.0,-4.8,-4.0,-3.2,-5.2,79,80,77,0.096,-8.9,-8.0,-10.6,1.513,1.0,286,29,2.2,-0.00004,-0.00005,22.6,27.0,8,0,0,0.0,0.19,0.00,0.00
15min,AgWx,bigpiney,439,28FEB2021:05:15:00,-4.0,12.4,-4.6,-5.0,-5.2,-4.1,-7.0,80,82,78,0.096,-9.8,-8.3,-12.0,3.727,2.5,268,14,3.7,-0.00002,-0.00002,22.5,27.0,8,0,0,0.0,0.19,0.00,0.00
15min,AgWx,bigpiney,439,28FEB2021:05:30:00,-4.3,12.38,-2.1,-2.6,-3.3,-2.6,-5.1,80,81,79,0.106,-7.9,-7.4,-9.7,2.411,2.0,307,19,3.6,-0.00003,-0.00003,22.3,26.8,8,0,0,0.0,0.19,0.00,0.00
15min,AgWx,bigpiney,439,28FEB2021:05:45:00,-4.4,12.38,-4.1,-4.5,-4.6,-2.6,-6.7,79,81,77,0.099,-9.4,-7.5,-12.1,0,1.2,318,38,4.7,-0.00004,-0.00005,22.2,26.9,8,0,0,0.0,0.19,0.00,0.00
15min,AgWx,bigpiney,439,28FEB2021:06:00:00,-4.6,12.37,-6.8,-8.0,-5.5,-4.5,-8.0,80,81,77,0.080,-10.1,-8.9,-13.2,2.521,1.6,260,44,4.8,-0.00003,-0.00004,22.1,26.8,8,0,0,0.0,0.19,0.00,0.00
15min,AgWx,bigpiney,439,28FEB2021:06:15:00,-5.0,12.36,-8.6,-8.9,-7.6,-6.5,-8.9,79,82,77,0.077,-12.3,-10.7,-13.8,4.691,3.4,232,22,5.4,-0.00001,-0.00001,22.0,26.8,8,0,0,0.0,0.19,0.00,0.00
15min,AgWx,bigpiney,439,28FEB2021:06:30:00,-5.3,12.36,-5.3,-5.7,-6.6,-5.5,-9.0,82,84,78,0.096,-10.6,-9.0,-13.9,1.556,3.0,304,21,4.7,-0.00002,-0.00002,21.8,26.6,8,0,0,0.0,0.19,0.00,0.00
15min,AgWx,bigpiney,439,28FEB2021:06:45:00,-5.6,12.35,-6.6,-7.5,-7.4,-5.7,-9.0,82,84,80,0.088,-11.5,-9.5,-13.6,1.885,2.0,256,38,6.2,-0.00002,-0.00003,21.7,26.6,8,0,0,0.0,0.19,0.00,0.00
15min,AgWx,bigpiney,439,28FEB2021:07:00:00,-6.1,12.44,-6.7,-7.4,-8.4,-7.4,-9.5,82,84,81,0.089,-12.3,-11.1,-13.8,2.346,2.2,253,15,3.5,-0.00002,-0.00002,21.6,26.5,8,4,0,0.0,0.19,0.00,0.00
15min,AgWx,bigpiney,439,28FEB2021:07:15:00,-6.4,14.71,-8.4,-8.9,-8.5,-7.2,-9.5,82,84,80,0.079,-12.6,-10.9,-13.9,4.45,3.9,232,9.0,5.7,-0.00004,-0.00002,21.5,26.4,8,28,0,0.0,0.19,0.00,0.00
15min,AgWx,bigpiney,439,28FEB2021:07:30:00,-6.2,14.98,-7.3,-7.8,-7.2,-5.6,-8.9,80,83,78,0.082,-11.9,-9.5,-13.4,2.828,4.1,223,6.3,5.1,0.00000,0.00002,21.4,26.4,8,59,0,0.0,0.19,0.00,0.00
15min,AgWx,bigpiney,439,28FEB2021:07:45:00,-5.5,15.03,-4.2,-5.3,-6.9,-5.3,-7.9,79,80,78,0.094,-11.8,-10.0,-12.9,0.614,2.3,212,14,4.0,0.00003,0.00005,21.3,26.3,8,94,0,0.0,0.19,0.00,0.00
15min,AgWx,bigpiney,439,28FEB2021:08:00:00,-4.1,14.99,-2.0,-3.2,-4.5,-3.2,-5.4,79,80,79,0.104,-9.3,-7.9,-10.3,1.929,1.7,202,27,3.6,0.00008,0.00010,21.2,26.2,8,131,0,0.0,0.19,0.00,0.00
15min,AgWx,bigpiney,439,28FEB2021:08:15:00,-2.0,15.01,0.4,-0.5,-1.6,-0.4,-3.1,79,80,78,0.116,-6.6,-5.5,-7.8,0.351,0.9,238,22,3.0,0.00014,0.00016,21.1,26.2,8,166,0,0.0,0.19,0.00,0.00
15min,AgWx,bigpiney,439,28FEB2021:08:30:00,0.7,14.98,1.1,0.7,0.1,0.7,-0.7,78,78,77,0.121,-5.2,-4.7,-6.1,1.184,1.1,324,27,2.4,0.00023,0.00026,21.0,26.2,8,209,0,0.0,0.19,0.00,0.00
15min,AgWx,bigpiney,439,28FEB2021:08:45:00,3.5,14.85,2.1,1.5,0.9,1.5,0.5,77,78,77,0.126,-4.6,-3.9,-5.1,2.017,1.1,345,29,2.8,0.00032,0.00035,21.0,26.1,8,249,0,0.0,0.19,0.00,0.00